Hourly Data Report for December 03, 2019

All times are specified in Local Standard Time (LST). Add 1 hour to adjust for Daylight Saving Time where and when it is observed.

SATURNA ISLAND CS
BRITISH COLUMBIA
Current Station Operator: ECCC - MSC

48°47'02.067" N
123°02'41.082" W
24.40 m
1017101
71473
WEZ

Download Data

Hourly Data (December 2019)
Hourly Data Report for December 3, 2019
TIME Temp Definition
°C
Dew Point Definition
°C
Rel Hum Definition
%
Wind Dir Definition
10's deg

Wind Spd Definition
km/h
Visibility Definition
km
Stn Press Definition
kPa
Hmdx Definition


Wind Chill Definition


Weather Definition


00:00 6.2 5.7 96 14 5   101.72     LegendNANA
01:00 6.4 5.9 96 17 9   101.67     LegendNANA
02:00 6.7 6.1 97 18 9   101.66     LegendNANA
03:00 6.8 6.3 96 36 2   101.63     LegendNANA
04:00 7.2 6.7 97 26 8   101.64     LegendNANA
05:00 7.7 7.1 96 19 15   101.58     LegendNANA
06:00 7.9 6.7 92 18 8   101.54     LegendNANA
07:00 7.8 6.9 94 25 10   101.53     LegendNANA
08:00 7.9 7.1 95 21 16   101.53     LegendNANA
09:00 8.8 7.4 91 11 10   101.55     LegendNANA
10:00 9.2 7.5 89 10 5   101.57     LegendNANA
11:00 9.1 7.7 91 31 4   101.56     LegendNANA
12:00 9.4 7.4 88 17 17   101.52     LegendNANA
13:00 9.5 7.3 86 16 14   101.47     LegendNANA
14:00 9.4 7.2 86 17 20   101.40     LegendNANA
15:00 9.5 7.3 86 17 20   101.35     LegendNANA
16:00 9.7 7.1 84 18 26   101.30     LegendNANA
17:00 9.7 7.1 84 17 31   101.23     LegendNANA
18:00 9.9 7.5 85 18 32   101.18     LegendNANA
19:00 9.9 7.4 84 19 32   101.09     LegendNANA
20:00 10.0 7.6 85 19 28   101.07     LegendNANA
21:00 10.1 7.4 83 18 30   101.04     LegendNANA
22:00 9.9 7.8 87 18 21   101.02     LegendNANA
23:00 9.6 7.8 89 21 25   101.01     LegendNANA

Notes on Data Quality.

Legend

  • E = Estimated
  • M = Missing
  • NA = Not Available
Date modified: